Regional Weather Roundup
Issued by NWS Kansas City/Pleasant Hill, MO

Home | Current Version | Previous Version | Text Only | Print | Product List | Glossary On
Versions: 1 2 3 4 5 6 7 8 9 10 11 12 13 14 15 16 17 18 19 20 21 22 23 24 25 26 27 28 29 30 31 32 33 34 35 36 37 38 39 40 41 42 43 44 45 46 47 48 49 50
000
ASUS43 KEAX 270611
RWREAX

WEATHER ROUNDUP FOR EASTERN KANSAS AND NORTHWEST MISSOURI
NATIONAL WEATHER SERVICE KANSAS CITY/PLEASANT HILL MO
100 AM CDT MON APR 27 2015

KSZ040-057-103>105-MOZ028-029-037-043-270700-
...KANSAS CITY METROPOLITAN AREA...

CITY           SKY/WX    TMP DP  RH WIND       PRES   REMARKS
K.C. INTL      PTCLDY    47  39  74 NE8       30.03S
6HR MIN TEMP:  47; 6HR MAX TEMP:  60;

K.C. DOWNTOWN  CLEAR     50  38  63 E7        30.03R
6HR MIN TEMP:  50; 6HR MAX TEMP:  62;

LEES SUMMIT    PTCLDY    49  36  61 NE7       30.03S
6HR MIN TEMP:  49; 6HR MAX TEMP:  60;

OLATHE - IXD   CLEAR     49  37  63 NE7       30.03R
6HR MIN TEMP:  49; 6HR MAX TEMP:  61;

OLATHE - OJC   CLEAR     49  36  61 E8        30.02R
6HR MIN TEMP:  49; 6HR MAX TEMP:  60;

LAWRENCE       CLEAR     48  37  65 NE7       30.03R

$$

MOZ001>008-011>017-020>025-030>033-038>040-044>046-053-054-270700-
...NORTHERN AND CENTRAL MISSOURI...

CITY           SKY/WX    TMP DP  RH WIND       PRES   REMARKS
ST. JOSEPH     PTCLDY    51  33  50 NE12      30.06S
6HR MIN TEMP:  50; 6HR MAX TEMP:  62;

MOSBY          PTCLDY    50  36  57 NE5       30.04S
WARRENSBURG    PTCLDY    46  36  66 NE7       30.03S
WHITEMAN AFB   PTCLDY    46  37  70 NE8       30.02S
6HR MIN TEMP:  46; 6HR MAX TEMP:  60;

CLINTON        MOCLDY    50  37  62 NE9       30.02R
SEDALIA        PTCLDY    48  35  60 E7        30.04S
6HR MIN TEMP:  48; 6HR MAX TEMP:  61;

WARSAW         NOT AVBL
MARSHALL       CLEAR     48  39  71 NE6       30.05S
CHILLICOTHE      N/A     46  37  71 N6        30.08S
6HR MIN TEMP:  46; 6HR MAX TEMP:  62;

MOBERLY        CLEAR     46  36  66 NE8       30.07S
KIRKSVILLE     CLEAR     45  33  63 NE5       30.09R
6HR MIN TEMP:  42; 6HR MAX TEMP:  58;


$$

MOZ041-047>049-056>058-063>065-088>090-097-270700-
...EASTERN AND SOUTHERN MISSOURI...

CITY           SKY/WX    TMP DP  RH WIND       PRES   REMARKS
ST. LOUIS INTL PTCLDY    50  35  56 NE5       30.05R
6HR MIN TEMP:  50; 6HR MAX TEMP:  61;

SPIRIT OF STL  CLEAR     43  40  89 CALM      30.04S
COLUMBIA       CLEAR     45  37  73 NE8       30.03S
JEFFERSON CITY PTCLDY    48  35  60 E3        30.03R
MEXICO         CLEAR     46  41  81 NE7       30.05S
HANNIBAL       CLEAR     48  32  53 CALM      30.07F
ROLLA          PTCLDY    47  36  65 NE9       30.00S
LEBANON        CLOUDY    48  36  61 E8        30.00R
OSAGE BEACH    MOCLDY    50  34  53 E9        30.01S
SPRINGFIELD    CLOUDY    51  37  58 E12       29.96R
BRANSON        CLOUDY    48  45  87 CALM      29.96R
NEVADA         CLOUDY    45  39  81 NE7       30.00S
JOPLIN         CLOUDY    52  43  71 E8        29.95R
WEST PLAINS    MOCLDY    49  36  61 NE9       29.98R

$$

IAZ060-094-KSZ022-034>040-054-083-096-NEZ052-066-093-270700-
...KANSAS...SOUTHEAST NEBRASKA AND IOWA...

CITY           SKY/WX    TMP DP  RH WIND       PRES   REMARKS
TOPEKA         PTCLDY    47  39  74 N3        30.04R
6HR MIN TEMP:  47; 6HR MAX TEMP:  61;

MANHATTAN      PTCLDY    46  41  82 NE6       30.04R
EMPORIA        MOCLDY    49  39  68 NE9       29.99F
CHANUTE        CLOUDY    53  40  61 NE10      29.95S
WICHITA        CLOUDY    53  43  68 NE13      29.96R
OMAHA          CLEAR     42  38  85 NW5       30.11R
LINCOLN        PTCLDY    42  36  79 N6        30.10S
FALLS CITY     PTCLDY    48  32  53 NE6       30.06F
LAMONI         CLEAR     48  31  51 E5        30.09R
DES MOINES     CLEAR     46  29  51 CALM      30.12R

$$




USA.gov is the U.S. government's official web portal to all federal, state and local government web resources and services.